[[{"header":{"parameterUnit":"m.s-1","parameterCategory":1,"la1":30.2991,"la2":30.254,"lo1":-89.0895,"lo2":-89.0444,"dy":0.0017,"dx":0.0017,"nx":28,"ny":28,"refTime":"2024-09-02T09:00:00:Z","depth":0,"parameterNumber":2,"parameterNumberName":"U-component_of_WINDS"},"data":[0,0,0,0,0,0,0,0,0,0,0,0,0,0,0,0,0,0,0,0,0,0,0,0,0,0,0,0,0,0,0,0,0,0,0,0,0,0,0,0,0,0,0,0,0,0,0,0,0,0,0,0,0,0,0,0,0,0,-1.8428,-1.8428,0,-1.8447,-1.8447,-1.8448,-1.8421,-1.842,-1.8419,-1.8419,-1.8439,-1.844,-1.8442,0,0,0,0,0,0,0,0,0,0,0,0,0,-1.8369,-1.837,-1.8428,-1.8428,-1.8428,-1.8447,-1.8447,-1.8448,-1.8421,-1.842,-1.8419,-1.8418,-1.8438,-1.844,-1.8442,0,0,0,0,0,0,0,0,0,0,0,0,0,-1.8392,-1.837,-1.8428,-1.8417,-1.8417,-1.8447,-1.8447,-1.8448,-1.8422,-1.842,-1.8419,-1.8418,-1.8438,-1.844,-1.8442,-1.8484,0,0,-1.8449,-1.845,0,0,0,0,0,0,0,0,-1.839,-1.8394,-1.8419,-1.8418,-1.8417,-1.843,-1.8434,-1.846,-1.8422,-1.842,-1.8418,-1.8417,-1.8437,-1.8439,-1.8446,-1.8485,-1.8485,-1.8449,-1.845,-1.8451,-1.8452,0,0,0,0,0,0,0,-1.8389,-1.8393,-1.8435,-1.8419,-1.8418,-1.8412,-1.8414,-1.8439,-1.8436,-1.842,-1.8418,-1.8421,-1.8437,-1.8444,-1.8446,-1.8486,-1.8449,-1.8451,-1.8452,-1.8453,-1.8561,-1.8562,0,0,0,0,0,0,-1.8388,-1.8392,-1.8435,-1.8436,-1.84,-1.8414,-1.8416,-1.8428,-1.8436,-1.8436,-1.8422,-1.8419,-1.8441,-1.8444,-1.8447,-1.8497,-1.8451,-1.8453,-1.8454,-1.8559,-1.8561,-1.8563,0,0,0,0,0,0,-1.8387,-1.8392,-1.8434,-1.8413,-1.8418,-1.8417,-1.843,-1.8429,-1.8436,-1.8437,-1.8437,-1.843,-1.844,-1.8444,-1.8475,-1.8497,-1.8454,-1.8456,-1.8557,-1.856,-1.8562,-1.8597,0,0,0,0,0,0,-1.8386,-1.8392,-1.8408,-1.8414,-1.8419,-1.8461,-1.8431,-1.843,-1.844,-1.8437,-1.8445,-1.8445,-1.8439,-1.8472,-1.8477,-1.85,-1.8458,-1.8555,-1.8558,-1.8561,-1.8594,-1.8601,-1.8606,0,0,0,0,0,-1.8384,-1.8417,-1.8409,-1.8414,-1.8439,-1.8463,-1.8466,-1.8459,-1.8442,-1.8458,-1.8459,-1.8445,-1.8494,-1.8475,-1.8481,-1.8504,-1.8554,-1.8557,-1.8561,-1.8591,-1.8599,-1.8606,0,0,0,0,0,0,-1.8413,-1.8417,-1.8408,-1.8445,-1.8454,-1.8458,-1.8478,-1.8467,-1.8481,-1.8478,-1.8468,-1.8471,-1.8504,-1.8507,-1.8486,-1.8546,-1.8521,-1.8526,-1.8542,-1.855,-1.8556,-1.8555,-1.8459,0,0,0,0,0,-1.8424,-1.8443,-1.8446,-1.8477,-1.8482,-1.8479,-1.849,-1.8483,-1.8492,-1.8496,-1.8499,-1.8509,-1.8526,-1.8538,-1.8554,-1.8594,-1.8596,-1.8613,-1.8619,-1.8624,-1.8629,-1.8651,-1.8659,-1.8574,-1.8574,-1.8574,0,0,-1.8446,-1.8451,-1.8464,-1.8483,-1.849,-1.851,-1.8483,-1.8505,-1.852,-1.8499,-1.8529,-1.8532,-1.8542,-1.8578,-1.8594,-1.8581,-1.8652,-1.8629,-1.8633,-1.8634,-1.8656,-1.8664,-1.8671,-1.8577,-1.8576,-1.8576,0,0,-1.8498,-1.8503,-1.853,-1.8537,-1.8547,-1.8545,-1.8552,-1.8558,-1.8559,-1.8589,-1.8574,-1.8592,-1.8622,-1.863,-1.8638,-1.8694,-1.8682,-1.8699,-1.8731,-1.8753,-1.876,-1.8765,-1.8786,-1.8794,-1.8704,-1.8704,-1.8704,0,-1.8524,-1.8554,-1.8546,-1.857,-1.8579,-1.8561,-1.8589,-1.8596,-1.8611,-1.8618,-1.8604,-1.8643,-1.8648,-1.8686,-1.87,-1.8707,-1.8714,-1.8699,-1.8759,-1.8765,-1.877,-1.879,-1.8798,-1.8706,-1.8706,-1.8705,-1.8705,0,-1.8587,-1.8608,-1.8629,-1.8644,-1.8656,-1.8682,-1.8678,-1.8691,-1.8683,-1.8683,-1.8714,-1.872,-1.8738,-1.8746,-1.8739,-1.8783,-1.8776,-1.8761,-1.8736,-1.8781,-1.8799,-1.8807,-1.8709,-1.8708,-1.8707,-1.8707,0,0,-1.8658,-1.8668,-1.8676,-1.8683,-1.8693,-1.8709,-1.8734,-1.8752,-1.8764,-1.8774,-1.8796,-1.8822,-1.8809,-1.8818,-1.8812,-1.8831,-1.8876,-1.8814,-1.8814,-1.8826,-1.8926,-1.8939,-1.8947,-1.8868,-1.8869,-1.887,-1.8926,0,-1.871,-1.8754,-1.8747,-1.879,-1.8809,-1.8793,-1.8815,-1.8824,-1.8824,-1.8842,-1.8842,-1.8861,-1.8841,-1.8847,-1.8865,-1.8867,-1.8896,-1.8862,-1.8889,-1.889,-1.8888,-1.8957,-1.8969,-1.9022,-1.8933,-1.8934,-1.8935,0,-1.8777,-1.8791,-1.8835,-1.8843,-1.8851,-1.8871,-1.8887,-1.8903,-1.8913,-1.8912,-1.8923,-1.8913,-1.8939,-1.8913,-1.8949,-1.8927,-1.8937,-1.8939,-1.8941,-1.8944,-1.8916,-1.8963,-1.9038,-1.9046,-1.8946,-1.8945,-1.8944,0,-1.8825,-1.8855,-1.8886,-1.8892,-1.8901,-1.8916,-1.8921,-1.8929,-1.894,-1.8954,-1.8961,-1.8978,-1.8987,-1.9001,-1.8996,-1.8978,-1.9034,-1.9007,-1.9034,-1.9035,-1.9048,-1.9047,-1.9127,-1.9053,-1.9052,-1.9052,-1.9052,0,-1.8885,-1.8913,-1.8908,-1.8927,-1.8958,-1.895,-1.8982,-1.8984,-1.8992,-1.9011,-1.8998,-1.9017,-1.9009,-1.9028,-1.9024,-1.9056,-1.906,-1.906,-1.9059,-1.9062,-1.9062,-1.9069,-1.9066,-1.9054,-1.9054,-1.9054,-1.9053,0,-1.8945,-1.8942,-1.8975,-1.8981,-1.8983,-1.9006,-1.9012,-1.903,-1.9029,-1.9055,-1.906,-1.9059,-1.9081,-1.9077,-1.9101,-1.9098,-1.9138,-1.9132,-1.9134,-1.9133,-1.9161,-1.9159,-1.9249,-1.9261,-1.9178,-1.9179,-1.918,0,-1.8983,-1.9005,-1.9014,-1.9026,-1.9032,-1.9051,-1.9063,-1.9056,-1.9069,-1.9082,-1.9099,-1.9118,-1.9134,-1.9169,-1.9171,-1.9189,-1.9184,-1.9214,-1.9186,-1.9189,-1.9186,-1.9185,-1.9187,-1.922,-1.9221,-1.9222,-1.9222,0,-1.9053,-1.905,-1.9067,-1.9084,-1.9099,-1.9111,-1.9123,-1.9134,-1.9128,-1.9143,-1.9165,-1.9177,-1.9201,-1.9221,-1.9238,-1.9243,-1.9233,-1.9231,-1.9238,-1.9242,-1.9243,-1.9244,-1.9151,-1.9229,-1.9228,-1.9228,-1.9227,-1.9227,-1.9104,-1.9122,-1.9132,-1.9152,-1.916,-1.9171,-1.9189,-1.9191,-1.9208,-1.9228,-1.9222,-1.9247,-1.9257,-1.9279,-1.9286,-1.9305,-1.9294,-1.9305,-1.9308,-1.9311,-1.9315,-1.9239,-1.9308,-1.9308,-1.9308,-1.9308,-1.9308,0,-1.9173,-1.9179,-1.9197,-1.9214,-1.923,-1.9217,-1.923,-1.9244,-1.9266,-1.9276,-1.9292,-1.9317,-1.9337,-1.934,-1.9359,-1.9374,-1.937,-1.938,-1.9379,-1.9381,-1.9323,-1.9315,-1.9383,-1.9383,-1.9383,-1.9383,-1.9383,-1.9383,-1.9211,-1.9243,-1.9242,-1.9277,-1.9282,-1.9307,-1.9315,-1.9326,-1.9334,-1.9363,-1.9379,-1.9381,-1.9389,-1.9409,-1.9427,-1.9427,-1.9435,-1.9447,-1.9446,-1.9392,-1.9385,-1.9377,-1.937,-1.9449,-1.9449,-1.9503,-1.9503,-1.9503]},{"header":{"parameterUnit":"m.s-1","parameterCategory":1,"la1":30.2991,"la2":30.254,"lo1":-89.0895,"lo2":-89.0444,"dy":0.0017,"dx":0.0017,"nx":28,"ny":28,"refTime":"2024-09-02T09:00:00:Z","depth":0,"parameterNumber":3,"parameterNumberName":"V-component_of_WINDS"},"data":[0,0,0,0,0,0,0,0,0,0,0,0,0,0,0,0,0,0,0,0,0,0,0,0,0,0,0,0,0,0,0,0,0,0,0,0,0,0,0,0,0,0,0,0,0,0,0,0,0,0,0,0,0,0,0,0,0,0,-2.4947,-2.4947,0,-2.494,-2.494,-2.494,-2.4901,-2.49,-2.4899,-2.4898,-2.4892,-2.4892,-2.4893,0,0,0,0,0,0,0,0,0,0,0,0,0,-2.4927,-2.4927,-2.4947,-2.4947,-2.4947,-2.494,-2.494,-2.494,-2.4901,-2.49,-2.4899,-2.4898,-2.4891,-2.4892,-2.4893,0,0,0,0,0,0,0,0,0,0,0,0,0,-2.4929,-2.4927,-2.4947,-2.4927,-2.4925,-2.494,-2.494,-2.494,-2.4901,-2.49,-2.4899,-2.4897,-2.4891,-2.4892,-2.4893,-2.4927,0,0,-2.4896,-2.4897,0,0,0,0,0,0,0,0,-2.4929,-2.493,-2.493,-2.4928,-2.4926,-2.492,-2.493,-2.4936,-2.4902,-2.491,-2.4898,-2.4897,-2.4902,-2.4902,-2.4904,-2.4927,-2.4927,-2.4896,-2.4897,-2.4897,-2.4898,0,0,0,0,0,0,0,-2.4929,-2.493,-2.4944,-2.493,-2.4927,-2.4918,-2.4917,-2.4931,-2.4914,-2.4909,-2.4907,-2.4906,-2.4901,-2.4903,-2.4904,-2.4927,-2.4896,-2.4897,-2.4898,-2.4898,-2.4978,-2.498,0,0,0,0,0,0,-2.4932,-2.493,-2.4944,-2.4944,-2.4924,-2.4919,-2.4918,-2.4923,-2.4914,-2.4911,-2.4908,-2.4905,-2.4902,-2.4902,-2.4903,-2.4943,-2.4897,-2.4898,-2.4899,-2.4977,-2.4979,-2.498,0,0,0,0,0,0,-2.4931,-2.4933,-2.4945,-2.4936,-2.4937,-2.4921,-2.4927,-2.4924,-2.4926,-2.4912,-2.4909,-2.4913,-2.4901,-2.4902,-2.4922,-2.4943,-2.4899,-2.49,-2.4975,-2.4977,-2.4979,-2.5024,0,0,0,0,0,0,-2.4931,-2.4933,-2.4946,-2.4937,-2.4938,-2.4964,-2.4929,-2.4925,-2.4928,-2.4924,-2.4917,-2.4914,-2.49,-2.492,-2.4923,-2.4943,-2.4901,-2.4973,-2.4976,-2.4979,-2.5021,-2.5027,-2.5033,0,0,0,0,0,-2.493,-2.4959,-2.4947,-2.4949,-2.4953,-2.4965,-2.4965,-2.4948,-2.493,-2.4943,-2.4934,-2.4914,-2.494,-2.4923,-2.4925,-2.4946,-2.4972,-2.4975,-2.4979,-2.5018,-2.5026,-2.5033,0,0,0,0,0,0,-2.4971,-2.4957,-2.4944,-2.497,-2.4969,-2.4958,-2.4974,-2.4958,-2.4961,-2.4958,-2.4936,-2.4935,-2.4958,-2.4954,-2.4936,-2.4979,-2.4952,-2.4956,-2.4981,-2.4989,-2.4996,-2.4997,-2.4901,0,0,0,0,0,-2.4983,-2.4993,-2.4981,-2.5005,-2.5005,-2.499,-2.4994,-2.4981,-2.4979,-2.4978,-2.4971,-2.497,-2.4977,-2.4983,-2.4989,-2.5019,-2.5018,-2.5035,-2.5041,-2.5047,-2.5051,-2.5067,-2.5075,-2.4991,-2.4991,-2.4991,0,0,-2.5008,-2.5002,-2.501,-2.5013,-2.5011,-2.5022,-2.499,-2.5003,-2.5011,-2.498,-2.4999,-2.4994,-2.4991,-2.5016,-2.5027,-2.5014,-2.5073,-2.5051,-2.5055,-2.5057,-2.5072,-2.508,-2.5087,-2.4994,-2.4993,-2.4993,0,0,-2.506,-2.5056,-2.5076,-2.5074,-2.5071,-2.506,-2.5065,-2.5057,-2.5052,-2.5071,-2.5048,-2.5057,-2.5071,-2.507,-2.5072,-2.5123,-2.5106,-2.5126,-2.5159,-2.5176,-2.5182,-2.5188,-2.5208,-2.5215,-2.513,-2.513,-2.513,0,-2.5091,-2.5108,-2.5089,-2.5104,-2.5106,-2.5079,-2.5099,-2.5098,-2.5097,-2.51,-2.5084,-2.5101,-2.5097,-2.5122,-2.5135,-2.5137,-2.5142,-2.5127,-2.5183,-2.5189,-2.5194,-2.5212,-2.5219,-2.5132,-2.5132,-2.5132,-2.5131,0,-2.5147,-2.5159,-2.5176,-2.5176,-2.518,-2.5198,-2.5182,-2.5188,-2.5175,-2.5166,-2.5186,-2.518,-2.5185,-2.519,-2.5177,-2.5214,-2.5205,-2.5187,-2.5159,-2.5205,-2.5221,-2.5228,-2.5136,-2.5135,-2.5134,-2.5134,0,0,-2.5225,-2.5214,-2.5221,-2.5221,-2.5215,-2.5224,-2.524,-2.5245,-2.5252,-2.5252,-2.5266,-2.5278,-2.5261,-2.5262,-2.5249,-2.5263,-2.5306,-2.5243,-2.5242,-2.5255,-2.5347,-2.5362,-2.537,-2.5293,-2.5295,-2.5296,-2.5347,0,-2.5275,-2.5303,-2.5287,-2.5317,-2.5328,-2.5302,-2.5317,-2.5315,-2.5307,-2.5315,-2.5307,-2.5316,-2.5292,-2.5293,-2.5306,-2.5298,-2.5324,-2.5294,-2.5307,-2.5308,-2.5309,-2.5379,-2.5394,-2.5443,-2.5354,-2.5355,-2.5356,0,-2.5338,-2.5341,-2.5373,-2.5366,-2.537,-2.5383,-2.5387,-2.5395,-2.5392,-2.5385,-2.5387,-2.5371,-2.5387,-2.5359,-2.5381,-2.5361,-2.5366,-2.5362,-2.5364,-2.5365,-2.5335,-2.5383,-2.5459,-2.5466,-2.5366,-2.5365,-2.5364,0,-2.5393,-2.5405,-2.5426,-2.5426,-2.5418,-2.5428,-2.5425,-2.5421,-2.5425,-2.5428,-2.5431,-2.5436,-2.5438,-2.5443,-2.5428,-2.5409,-2.5452,-2.5423,-2.5448,-2.5448,-2.5459,-2.5459,-2.5537,-2.546,-2.546,-2.546,-2.546,0,-2.5451,-2.5472,-2.545,-2.5463,-2.5486,-2.5466,-2.5489,-2.5483,-2.548,-2.5492,-2.5469,-2.548,-2.5459,-2.5469,-2.5457,-2.5478,-2.5479,-2.5474,-2.5471,-2.5477,-2.5478,-2.548,-2.5477,-2.5462,-2.5461,-2.5461,-2.5461,0,-2.5517,-2.5503,-2.5524,-2.5514,-2.5512,-2.553,-2.5521,-2.5533,-2.5524,-2.5539,-2.5541,-2.5527,-2.5536,-2.5521,-2.5529,-2.5522,-2.5551,-2.5542,-2.5552,-2.555,-2.5575,-2.5574,-2.5659,-2.567,-2.5585,-2.5586,-2.5586,0,-2.5555,-2.5571,-2.5563,-2.5569,-2.5568,-2.5578,-2.5582,-2.5563,-2.5569,-2.5567,-2.5579,-2.5587,-2.5593,-2.561,-2.56,-2.5606,-2.5598,-2.5627,-2.5599,-2.5604,-2.5599,-2.5599,-2.5601,-2.5634,-2.5635,-2.5635,-2.5636,0,-2.5626,-2.5619,-2.5626,-2.5631,-2.5636,-2.5639,-2.564,-2.5647,-2.5627,-2.5634,-2.5644,-2.5649,-2.5657,-2.5665,-2.5669,-2.5666,-2.5648,-2.5645,-2.5651,-2.5658,-2.5664,-2.5662,-2.5569,-2.5644,-2.5643,-2.5642,-2.5642,-2.5642,-2.568,-2.5693,-2.569,-2.5699,-2.5697,-2.5699,-2.571,-2.5702,-2.571,-2.5715,-2.5704,-2.5717,-2.5714,-2.5717,-2.5716,-2.5726,-2.5713,-2.5722,-2.5724,-2.5727,-2.5732,-2.5661,-2.5727,-2.5726,-2.5726,-2.5726,-2.5726,0,-2.5751,-2.5747,-2.5756,-2.5758,-2.5765,-2.5747,-2.5748,-2.5755,-2.5767,-2.5766,-2.5772,-2.5783,-2.5791,-2.5782,-2.5789,-2.5798,-2.5791,-2.5801,-2.58,-2.58,-2.5742,-2.5737,-2.5807,-2.5807,-2.5807,-2.5807,-2.5807,-2.5807,-2.5788,-2.5809,-2.5802,-2.5822,-2.5818,-2.5831,-2.5833,-2.5834,-2.5834,-2.5848,-2.5854,-2.5848,-2.5844,-2.585,-2.5857,-2.5854,-2.5858,-2.5871,-2.5866,-2.5812,-2.5804,-2.5797,-2.5791,-2.5872,-2.5872,-2.5923,-2.5924,-2.5924]}]]